VNREDSAT 1

Last updated on Wed Sep 17 2025 00:02:30 GMT+0000 (Coordinated Universal Time)

1 39160U 13021B 25259.60206612 .00000577 00000+0 11603-3 0 9994 2 39160 97.9397 317.8969 0001212 95.3324 264.8018 14.65059728660233
UTC large
Height (km)
Speed (km/s)
/
Latitude / Longitude
Inclination (degrees)
Orbital Period (minutes)
Azimuth
Elevation
Range (km)
Doppler Factor

Next 0 passes for location: London (51.5072 / 0.1276)

Sorry there are no passes over London.